Weather History for PABR - May, 2013

Change the Weather History Date:

Monday, May 27, 2013

  Actual Average Record
Temperature  
Mean Temperature 31 °F 27 °F  
Max Temperature 33 °F 31 °F 43 °F (1989)
Min Temperature 28 °F 23 °F 2 °F (1926)
Degree Days  
Heating Degree Days 34 38  
Month to date heating degree days 1169 1214  
Since 1 July heating degree days 17304 18361  
Cooling Degree Days 0    
Month to date cooling degree days 0  
Year to date cooling degree days 0  
Moisture  
Dew Point 27 °F    
Average Humidity 0    
Maximum Humidity 93    
Minimum Humidity 82    
Precipitation  
Precipitation T in 0.01 in 0.14 in (2008)
Month to date precipitation 0.37 0.15  
Year to date precipitation 1.19 0.67  
Snow  
Snow 0.10 in 0.10 in 2.50 in (2008)
Month to date snowfall 4.9 2.4  
Since 1 July snowfall 62.0 36.7  
Snow Depth T in    
Sea Level Pressure  
Sea Level Pressure 30.10 in    
Wind  
Wind Speed 7 mph (NNW)    
Max Wind Speed 14 mph    
Max Gust Speed 15 mph    
Visibility 4 miles    
Events Fog , Rain , Snow    
T = Trace of Precipitation, MM = Missing Value Source: NWS Daily Summary

Daily Weather History Graph

Daily Weather History Graph

Search for Another Location

Airport or City:

Trip Planner

Search our weather history database for the weather conditions in past years. The results will help you decide how hot, cold, wet, or windy it might be!

Date:

Astronomy

Dec. 31, 1969 Rise Set
Actual Time Sun does not set Sun does not set
Civil Twilight Sun does not set Sun does not set
Nautical Twilight Sun does not set Sun does not set
Astronomical Twilight Sun does not set Sun does not set
Moon No Moon Rise No Moon Set
Length of Visible Light 24h 00m
Length of Day
24h 00m
Waning Gibbous, 90% of the Moon is Illuminated
May 27
Waning Gibbous
May 31
Last Quarter
Jun 8
New
Jun 16
First Quarter
Jun 23
Full

Hourly Weather History & Observations

Time (AKDT) Temp. Windchill Dew Point Humidity Pressure Visibility Wind Dir Wind Speed Gust Speed Precip Events Conditions
12:25 AM 30.2 °F 21.3 °F 28.4 °F 93% 30.05 in 0.8 mi WNW 10.4 mph - N/A   Mist
12:53 AM 30.9 °F 21.7 °F 28.9 °F 92% 30.06 in 0.2 mi West 11.5 mph - 0.00 in Fog , Rain Light Freezing Rain
1:04 AM 30.2 °F 21.3 °F 28.4 °F 93% 30.06 in 0.8 mi WNW 10.4 mph - 0.00 in Rain Light Freezing Rain
1:11 AM 30.2 °F 21.3 °F 28.4 °F 93% 30.06 in 1.0 mi WNW 10.4 mph - 0.00 in Rain Light Freezing Rain
1:19 AM 30.2 °F 21.9 °F 28.4 °F 93% 30.06 in 0.8 mi WNW 9.2 mph - 0.00 in   Light Freezing Drizzle
1:53 AM 30.0 °F 21.1 °F 28.0 °F 92% 30.08 in 0.5 mi West 10.4 mph - 0.00 in Fog Light Freezing Drizzle
2:20 AM 30.2 °F 21.9 °F 26.6 °F 86% 30.08 in 1.0 mi WNW 9.2 mph - 0.00 in   Light Freezing Drizzle
2:31 AM 28.4 °F 19.1 °F 26.6 °F 93% 30.09 in 0.8 mi West 10.4 mph - 0.00 in   Light Freezing Drizzle
2:42 AM 28.4 °F 20.4 °F 26.6 °F 93% 30.09 in 0.5 mi WNW 8.1 mph - 0.00 in Fog Light Freezing Drizzle
2:53 AM 30.0 °F 21.1 °F 27.0 °F 88% 30.09 in 0.5 mi NW 10.4 mph - 0.00 in Fog Light Freezing Drizzle
3:30 AM 28.4 °F 20.4 °F 26.6 °F 93% 30.09 in 0.2 mi NW 8.1 mph - 0.00 in Fog Light Freezing Drizzle
3:35 AM 28.4 °F 18.0 °F 26.6 °F 93% 30.09 in 0.5 mi WNW 12.7 mph - 0.00 in Fog Light Freezing Drizzle
3:53 AM 28.9 °F 20.4 °F 27.0 °F 92% 30.10 in 0.2 mi NW 9.2 mph - 0.00 in Fog Light Freezing Drizzle
4:08 AM 30.2 °F 24.3 °F 28.4 °F 93% 30.10 in 0.2 mi NW 5.8 mph - 0.00 in Fog Light Freezing Drizzle
4:21 AM 28.4 °F 20.4 °F 26.6 °F 93% 30.10 in 0.2 mi NNW 8.1 mph - 0.00 in Fog Light Freezing Fog
4:34 AM 28.4 °F 21.2 °F 26.6 °F 93% 30.09 in 0.2 mi NW 6.9 mph - 0.00 in Fog Light Freezing Drizzle
4:53 AM 28.0 °F 22.8 °F 26.1 °F 92% 30.10 in 0.2 mi NNW 4.6 mph - 0.00 in Fog Light Freezing Fog
5:14 AM 28.4 °F 23.3 °F 26.6 °F 93% 30.09 in 0.1 mi NW 4.6 mph - 0.00 in Fog Light Freezing Drizzle
5:42 AM 28.4 °F 20.4 °F 26.6 °F 93% 30.10 in 0.5 mi NW 8.1 mph - 0.00 in Fog Light Freezing Fog
5:53 AM 28.0 °F 20.8 °F 26.1 °F 92% 30.10 in 0.5 mi NW 6.9 mph - 0.00 in Fog Light Freezing Fog
6:07 AM 28.4 °F 22.2 °F 26.6 °F 93% 30.10 in 0.8 mi North 5.8 mph - 0.00 in   Light Freezing Drizzle
6:16 AM 28.4 °F 22.2 °F 26.6 °F 93% 30.10 in 1.0 mi North 5.8 mph - 0.00 in   Light Freezing Drizzle
6:40 AM 28.4 °F 24.6 °F 26.6 °F 93% 30.10 in 3.0 mi NW 3.5 mph - 0.00 in Snow Light Snow
6:53 AM 28.0 °F 21.7 °F 25.0 °F 88% 30.11 in 2.5 mi NW 5.8 mph - 0.00 in Snow Light Snow
7:29 AM 28.4 °F 22.2 °F 26.6 °F 93% 30.11 in 1.2 mi NNW 5.8 mph - 0.00 in Snow Light Snow
7:53 AM 28.0 °F 24.2 °F 26.1 °F 92% 30.12 in 4.0 mi NNW 3.5 mph - 0.00 in Snow Light Snow
8:53 AM 28.9 °F 25.2 °F 26.1 °F 89% 30.12 in 10.0 mi NW 3.5 mph - 0.00 in   Overcast
9:53 AM 28.9 °F - 25.0 °F 85% 30.12 in 8.0 mi Calm Calm - 0.00 in   Overcast
10:53 AM 30.9 °F - 26.1 °F 82% 30.13 in 8.0 mi Calm Calm - 0.00 in   Overcast
11:53 AM 30.9 °F 27.5 °F 27.0 °F 85% 30.12 in 7.0 mi Variable 3.5 mph - N/A   Overcast
12:53 PM 30.9 °F 26.2 °F 28.0 °F 89% 30.12 in 10.0 mi ENE 4.6 mph - N/A   Mostly Cloudy
1:53 PM 32.0 °F 26.4 °F 27.0 °F 82% 30.13 in 10.0 mi East 5.8 mph - N/A   Mostly Cloudy
2:53 PM 30.9 °F 26.2 °F 27.0 °F 85% 30.13 in 9.0 mi East 4.6 mph - N/A   Mostly Cloudy
3:53 PM 30.9 °F 24.3 °F 26.1 °F 82% 30.13 in 10.0 mi East 6.9 mph - N/A   Mostly Cloudy
4:53 PM 30.0 °F 22.4 °F 27.0 °F 88% 30.13 in 10.0 mi ESE 8.1 mph - N/A   Overcast
5:53 PM 30.0 °F 24.1 °F 26.1 °F 85% 30.13 in 9.0 mi ESE 5.8 mph - N/A   Overcast
6:53 PM 30.9 °F 26.2 °F 27.0 °F 85% 30.12 in 5.0 mi East 4.6 mph - N/A   Overcast
7:53 PM 30.0 °F 21.1 °F 27.0 °F 88% 30.12 in 4.0 mi East 10.4 mph - 0.00 in   Overcast
8:38 PM 30.2 °F 20.8 °F 26.6 °F 86% 30.11 in 10.0 mi ESE 11.5 mph - N/A   Overcast
8:53 PM 30.9 °F 22.2 °F 28.0 °F 89% 30.11 in 10.0 mi East 10.4 mph - N/A   Overcast
9:53 PM 30.0 °F 20.5 °F 27.0 °F 88% 30.11 in 10.0 mi East 11.5 mph - N/A   Overcast
10:48 PM 30.2 °F 20.8 °F 26.6 °F 86% 30.10 in 10.0 mi East 11.5 mph - N/A   Overcast
10:53 PM 30.0 °F 21.1 °F 27.0 °F 88% 30.11 in 10.0 mi East 10.4 mph - N/A   Overcast
11:07 PM 30.2 °F 20.2 °F 26.6 °F 86% 30.10 in 9.0 mi East 12.7 mph - N/A   Overcast
11:44 PM 30.2 °F 20.8 °F 26.6 °F 86% 30.10 in 10.0 mi East 11.5 mph - N/A   Overcast
11:53 PM 30.0 °F 21.7 °F 27.0 °F 88% 30.11 in 10.0 mi East 9.2 mph - N/A   Overcast